Regional Weather Roundup
Issued by NWS

Home | Current Version | Previous Version | Text Only | Print | Product List | Glossary Off
Versions: 1 2 3 4 5 6 7 8 9 10 11 12 13 14 15 16 17 18 19 20 21 22 23 24 25 26 27 28 29 30 31 32 33 34 35 36 37 38 39 40 41 42 43 44 45 46 47 48 49 50

000
ASUS43 KLMK 220610
RWRKY
KENTUCKY REGIONAL WEATHER ROUNDUP
NATIONAL WEATHER SERVICE LOUISVILLE KY
200 AM EDT TUE AUG 22 2017

NOTE "FAIR" INDICATES FEW OR NO CLOUDS BELOW 12,000 FEET
WITH NO SIGNIFICANT WEATHER AND/OR OBSTRUCTIONS TO VISIBILITY.

KYZ001>023-026-027-061>063-070>075-220700-
WESTERN AND SOUTH CENTRAL KENTUCKY

CITY           SKY/WX    TMP DP  RH WIND       PRES   REMARKS
PADUCAH        CLEAR     79  72  79 S3        30.03S
HENDERSON      NOT AVBL
OWENSBORO      CLEAR     74  71  91 S3        30.03F
HOPKINSVILLE   CLEAR     79  71  77 S6        30.06F
BOWLING GREEN  CLEAR     79  71  76 CALM      30.07F
GLASGOW        CLEAR     74  67  81 CALM      30.08S
$$

KYZ024-025-028>034-038-045-046-053-220700-
NORTH CENTRAL KENTUCKY

CITY           SKY/WX    TMP DP  RH WIND       PRES   REMARKS
LOUISVILLE/SDF CLOUDY    81  68  64 S6        30.03F
LOUISVILLE/LOU CLOUDY    78  71  79 S6        30.04F
FORT KNOX      CLEAR     75  68  79 S6        30.04F
$$

KYZ035>037-039>044-047>052-055>060-089>105-220700-
NORTHEAST KENTUCKY

CITY           SKY/WX    TMP DP  RH WIND       PRES   REMARKS
LEXINGTON      PTCLDY    75  67  76 S6        30.08F
COVINGTON      CLOUDY    76  71  85 S8        30.04F
FRANKFORT      PTCLDY    77  67  71 S7        30.05F
$$

KYZ054-064>069-076>088-106>120-220700-
SOUTHEAST KENTUCKY

CITY           SKY/WX    TMP DP  RH WIND       PRES   REMARKS
JACKSON        PTCLDY    73  69  87 CALM      30.13F
LONDON         CLEAR     71  68  90 CALM      30.13F
SOMERSET       PTCLDY    72  72 100 CALM      30.12F
MIDDLESBORO    CLEAR     67  67 100 CALM      30.16F
MONTICELLO     CLEAR     72  69  90 NW9       30.12F
$$





USA.gov is the U.S. government's official web portal to all federal, state and local government web resources and services.